datetime,ave air temp
2000-09-15,51.44
2000-09-16,50.18
2000-09-17,54.86
2000-09-18,58.28
2000-09-19,59.36
2000-09-20,55.94
2000-09-21,48.2
2000-09-22,38.66
2000-09-23,37.4
2000-09-24,43.52
2000-09-25,46.22
2000-09-26,47.84
2000-09-27,50.72
2000-09-28,49.64
2000-09-29,49.46
2000-09-30,51.08
2000-10-01,49.64
2000-10-02,43.16
2000-10-03,42.8
2000-10-04,45.5
2000-10-05,44.6
2000-10-06,48.02
2000-10-07,50.72
2000-10-08,49.46
2000-10-09,40.64
2000-10-10,33.44
2000-10-11,35.24
2000-10-12,37.4
2000-10-13,38.66
2000-10-14,37.94
2000-10-15,37.4
2000-10-16,39.92
2000-10-17,47.3
2000-10-18,43.34
2000-10-19,44.6
2000-10-20,39.92
2000-10-21,30.56
2000-10-22,32.54
2000-10-23,37.76
2000-10-24,39.74
2000-10-25,38.3
2000-10-26,36.14
2000-10-27,35.78
2000-10-28,33.8
2000-10-29,32.72
2000-10-30,33.26
2000-10-31,33.08
2000-11-01,32.9
2000-11-02,38.3
2000-11-03,37.58
2000-11-04,34.16
2000-11-05,32.54
2000-11-06,30.02
2000-11-07,32.72
2000-11-08,30.38
2000-11-09,23.54
2000-11-10,19.4
2000-11-11,20.12
2000-11-12,22.82
2000-11-13,23.54
2000-11-14,25.52
2000-11-15,24.44
2000-11-16,21.56
2000-11-17,24.8
2000-11-18,28.76
2000-11-19,31.1
2000-11-20,32.18
2000-11-21,31.82
2000-11-22,32.36
2000-11-23,32.72
2000-11-24,30.56
2000-11-25,31.1
2000-11-26,33.8
2000-11-27,32.36
2000-11-28,33.26
2000-11-29,32.0
2000-11-30,30.38
2000-12-01,28.4
2000-12-02,32.18
2000-12-03,32.54
2000-12-04,33.08
2000-12-05,34.7
2000-12-06,35.42
2000-12-07,34.88
2000-12-08,37.76
2000-12-09,32.9
2000-12-10,24.8
2000-12-11,25.7
2000-12-12,25.16
2000-12-13,28.58
2000-12-14,30.2
2000-12-15,27.32
2000-12-16,30.2
2000-12-17,22.82
2000-12-18,25.34
2000-12-19,32.54
2000-12-20,33.62
2000-12-21,32.54
2000-12-22,31.46
2000-12-23,30.56
2000-12-24,24.62
2000-12-25,23.72
2000-12-26,28.04
2000-12-27,31.28
2000-12-28,31.1
2000-12-29,32.54
2000-12-30,32.54
2000-12-31,34.16
2001-01-01,34.16
2001-01-02,35.96
2001-01-03,35.78
2001-01-04,38.66
2001-01-05,37.94
2001-01-06,34.88
2001-01-07,35.42
2001-01-08,
2001-01-09,26.78
2001-01-10,28.22
2001-01-11,29.3
2001-01-12,24.62
2001-01-13,25.7
2001-01-14,23.9
2001-01-15,20.84
2001-01-16,16.88
2001-01-17,24.8
2001-01-18,31.46
2001-01-19,29.66
2001-01-20,29.12
2001-01-21,32.36
2001-01-22,32.9
2001-01-23,32.36
2001-01-24,27.14
2001-01-25,23.72
2001-01-26,24.44
2001-01-27,23.9
2001-01-28,24.62
2001-01-29,23.9
2001-01-30,20.3
2001-01-31,22.46
2001-02-01,29.12
2001-02-02,32.18
2001-02-03,33.98
2001-02-04,37.94
2001-02-05,31.64
2001-02-06,21.56
2001-02-07,18.86
2001-02-08,18.68
2001-02-09,24.62
2001-02-10,24.26
2001-02-11,19.94
2001-02-12,16.7
2001-02-13,21.74
2001-02-14,26.06
2001-02-15,27.68
2001-02-16,29.48
2001-02-17,32.18
2001-02-18,31.46
2001-02-19,32.54
2001-02-20,30.92
2001-02-21,30.56
2001-02-22,27.14
2001-02-23,26.6
2001-02-24,26.6
2001-02-25,28.22
2001-02-26,29.12
2001-02-27,28.04
2001-02-28,26.6
2001-03-01,27.68
2001-03-02,23.54
2001-03-03,20.3
2001-03-04,31.46
2001-03-05,34.7
2001-03-06,38.12
2001-03-07,40.1
2001-03-08,31.82
2001-03-09,27.68
2001-03-10,28.58
2001-03-11,30.56
2001-03-12,38.48
2001-03-13,34.7
2001-03-14,32.0
2001-03-15,30.2
2001-03-16,26.06
2001-03-17,35.78
2001-03-18,41.0
2001-03-19,41.0
2001-03-20,39.74
2001-03-21,41.9
2001-03-22,41.72
2001-03-23,42.08
2001-03-24,39.92
2001-03-25,32.9
2001-03-26,29.12
2001-03-27,33.26
2001-03-28,37.04
2001-03-29,37.76
2001-03-30,37.4
2001-03-31,38.84
2001-04-01,32.18
2001-04-02,23.18
2001-04-03,23.0
2001-04-04,27.14
2001-04-05,30.92
2001-04-06,27.14
2001-04-07,23.18
2001-04-08,24.08
2001-04-09,25.52
2001-04-10,28.76
2001-04-11,27.14
2001-04-12,28.58
2001-04-13,25.52
2001-04-14,28.22
2001-04-15,33.26
2001-04-16,39.74
2001-04-17,37.04
2001-04-18,32.54
2001-04-19,31.46
2001-04-20,30.92
2001-04-21,33.44
2001-04-22,36.86
2001-04-23,41.0
2001-04-24,44.6
2001-04-25,47.66
2001-04-26,47.48
2001-04-27,41.72
2001-04-28,31.46
2001-04-29,35.42
2001-04-30,39.02
2001-05-01,30.02
2001-05-02,33.98
2001-05-03,42.62
2001-05-04,45.32
2001-05-05,39.38
2001-05-06,43.34
2001-05-07,49.1
2001-05-08,48.92
2001-05-09,45.5
2001-05-10,47.48
2001-05-11,53.42
2001-05-12,50.0
2001-05-13,45.5
2001-05-14,38.48
2001-05-15,39.92
2001-05-16,38.66
2001-05-17,43.16
2001-05-18,46.76
2001-05-19,49.46
2001-05-20,51.62
2001-05-21,53.96
2001-05-22,58.64
2001-05-23,58.64
2001-05-24,56.48
2001-05-25,57.38
2001-05-26,56.84
2001-05-27,48.02
2001-05-28,41.0
2001-05-29,44.42
2001-05-30,55.58
2001-05-31,60.08
2001-06-01,47.84
2001-06-02,35.6
2001-06-03,33.62
2001-06-04,39.92
2001-06-05,38.3
2001-06-06,45.14
2001-06-07,50.54
2001-06-08,51.8
2001-06-09,48.38
2001-06-10,44.6
2001-06-11,41.9
2001-06-12,38.12
2001-06-13,45.5
2001-06-14,47.48
2001-06-15,49.46
2001-06-16,49.82
2001-06-17,46.04
2001-06-18,49.64
2001-06-19,54.5
2001-06-20,58.64
2001-06-21,59.36
2001-06-22,57.38
2001-06-23,51.08
2001-06-24,41.0
2001-06-25,43.16
2001-06-26,45.14
2001-06-27,46.22
2001-06-28,48.02
2001-06-29,51.8
2001-06-30,54.5
2001-07-01,55.04
2001-07-02,60.8
2001-07-03,64.04
2001-07-04,65.48
2001-07-05,61.16
2001-07-06,57.74
2001-07-07,58.64
2001-07-08,59.9
2001-07-09,63.32
2001-07-10,58.64
2001-07-11,53.06
2001-07-12,51.98
2001-07-13,55.94
2001-07-14,55.58
2001-07-15,50.54
2001-07-16,46.76
2001-07-17,46.04
2001-07-18,51.08
2001-07-19,52.7
2001-07-20,50.36
2001-07-21,50.18
2001-07-22,53.6
2001-07-23,57.74
2001-07-24,59.54
2001-07-25,59.0
2001-07-26,58.46
2001-07-27,57.74
2001-07-28,51.08
2001-07-29,47.66
2001-07-30,46.58
2001-07-31,49.28
2001-08-01,53.6
2001-08-02,56.84
2001-08-03,54.14
2001-08-04,52.16
2001-08-05,55.94
2001-08-06,60.44
2001-08-07,63.68
2001-08-08,66.74
2001-08-09,66.38
2001-08-10,64.4
2001-08-11,62.24
2001-08-12,60.08
2001-08-13,61.7
2001-08-14,61.34
2001-08-15,61.7
2001-08-16,61.52
2001-08-17,58.64
2001-08-18,51.8
2001-08-19,52.34
2001-08-20,51.98
2001-08-21,50.36
2001-08-22,50.54
2001-08-23,47.3
2001-08-24,49.1
2001-08-25,56.66
2001-08-26,59.18
2001-08-27,57.2
2001-08-28,57.02
2001-08-29,59.9
2001-08-30,58.46
2001-08-31,55.76
2001-09-01,53.42
2001-09-02,55.22
2001-09-03,54.86
2001-09-04,54.68
2001-09-05,44.06
2001-09-06,45.86
2001-09-07,54.32
2001-09-08,52.34
2001-09-09,56.66
2001-09-10,55.94
2001-09-11,57.38
2001-09-12,56.48
2001-09-13,52.34
2001-09-14,54.86
2001-09-15,50.72
2001-09-16,50.54
2001-09-17,52.52
2001-09-18,51.26
2001-09-19,50.18
2001-09-20,51.62
2001-09-21,51.26
2001-09-22,55.04
2001-09-23,53.6
2001-09-24,52.34
2001-09-25,43.16
2001-09-26,42.44
2001-09-27,41.18
2001-09-28,40.46
2001-09-29,46.94
2001-09-30,53.06
2001-10-01,55.94
2001-10-02,53.06
2001-10-03,53.06
2001-10-04,51.62
2001-10-05,48.56
2001-10-06,47.12
2001-10-07,43.88
2001-10-08,37.76
2001-10-09,35.42
2001-10-10,40.82
2001-10-11,36.32
2001-10-12,41.36
2001-10-13,46.76
2001-10-14,44.06
2001-10-15,46.76
2001-10-16,46.76
2001-10-17,37.76
2001-10-18,39.92
2001-10-19,46.04
2001-10-20,43.7
2001-10-21,41.0
2001-10-22,40.46
2001-10-23,30.38
2001-10-24,31.64
2001-10-25,38.3
2001-10-26,41.72
2001-10-27,40.46
2001-10-28,40.1
2001-10-29,41.0
2001-10-30,39.38
2001-10-31,38.12
2001-11-01,38.84
2001-11-02,37.76
2001-11-03,38.66
2001-11-04,40.1
2001-11-05,37.04
2001-11-06,30.2
2001-11-07,30.2
2001-11-08,35.42
2001-11-09,36.68
2001-11-10,38.48
2001-11-11,41.36
2001-11-12,39.02
2001-11-13,35.06
2001-11-14,38.12
2001-11-15,38.48
2001-11-16,37.22
2001-11-17,29.66
2001-11-18,31.82
2001-11-19,36.5
2001-11-20,33.44
2001-11-21,33.08
2001-11-22,30.38
2001-11-23,27.5
2001-11-24,27.14
2001-11-25,26.42
2001-11-26,23.18
2001-11-27,17.42
2001-11-28,25.16
2001-11-29,26.06
2001-11-30,27.68
2001-12-01,28.22
2001-12-02,28.76
2001-12-03,24.8
2001-12-04,24.26
2001-12-05,30.74
2001-12-06,32.18
2001-12-07,26.06
2001-12-08,27.68
2001-12-09,23.0
2001-12-10,23.72
2001-12-11,26.42
2001-12-12,26.24
2001-12-13,33.8
2001-12-14,22.46
2001-12-15,26.24
2001-12-16,33.8
2001-12-17,26.96
2001-12-18,27.32
2001-12-19,30.2
2001-12-20,26.42
2001-12-21,21.92
2001-12-22,27.32
2001-12-23,26.6
2001-12-24,23.72
2001-12-25,26.78
2001-12-26,30.92
2001-12-27,33.8
2001-12-28,31.28
2001-12-29,33.62
2001-12-30,33.62
2001-12-31,34.16
2002-01-01,33.98
2002-01-02,33.8
2002-01-03,27.5
2002-01-04,26.06
2002-01-05,30.92
2002-01-06,35.06
2002-01-07,35.96
2002-01-08,34.52
2002-01-09,28.4
2002-01-10,31.28
2002-01-11,35.24
2002-01-12,31.1
2002-01-13,26.6
2002-01-14,22.1
2002-01-15,19.04
2002-01-16,22.1
2002-01-17,21.74
2002-01-18,24.98
2002-01-19,23.36
2002-01-20,27.68
2002-01-21,23.0
2002-01-22,20.12
2002-01-23,22.82
2002-01-24,28.76
2002-01-25,30.92
2002-01-26,21.2
2002-01-27,15.98
2002-01-28,10.22
2002-01-29,9.86
2002-01-30,17.6
2002-01-31,27.32
2002-02-01,26.6
2002-02-02,25.7
2002-02-03,27.5
2002-02-04,25.34
2002-02-05,25.7
2002-02-06,31.1
2002-02-07,29.66
2002-02-08,23.54
2002-02-09,25.88
2002-02-10,32.0
2002-02-11,32.54
2002-02-12,32.9
2002-02-13,34.7
2002-02-14,32.0
2002-02-15,33.8
2002-02-16,33.8
2002-02-17,31.28
2002-02-18,30.74
2002-02-19,32.54
2002-02-20,36.5
2002-02-21,37.4
2002-02-22,38.3
2002-02-23,32.72
2002-02-24,29.12
2002-02-25,27.68
2002-02-26,34.52
2002-02-27,33.44
2002-02-28,26.42
2002-03-01,26.06
2002-03-02,28.04
2002-03-03,29.66
2002-03-04,32.54
2002-03-05,31.28
2002-03-06,33.62
2002-03-07,21.02
2002-03-08,19.22
2002-03-09,25.16
2002-03-10,30.92
2002-03-11,35.24
2002-03-12,27.32
2002-03-13,23.18
2002-03-14,23.9
2002-03-15,22.28
2002-03-16,19.76
2002-03-17,19.58
2002-03-18,20.12
2002-03-19,32.18
2002-03-20,35.06
2002-03-21,38.3
2002-03-22,37.04
2002-03-23,32.54
2002-03-24,30.92
2002-03-25,30.02
2002-03-26,33.98
2002-03-27,36.32
2002-03-28,38.3
2002-03-29,39.02
2002-03-30,40.64
2002-03-31,41.72
2002-04-01,44.96
2002-04-02,43.7
2002-04-03,44.06
2002-04-04,45.32
2002-04-05,40.46
2002-04-06,37.04
2002-04-07,38.3
2002-04-08,39.74
2002-04-09,36.14
2002-04-10,37.58
2002-04-11,39.56
2002-04-12,43.34
2002-04-13,46.04
2002-04-14,34.34
2002-04-15,26.24
2002-04-16,26.96
2002-04-17,25.88
2002-04-18,28.22
2002-04-19,32.18
2002-04-20,34.7
2002-04-21,37.76
2002-04-22,40.82
2002-04-23,38.3
2002-04-24,39.74
2002-04-25,41.9
2002-04-26,33.98
2002-04-27,29.84
2002-04-28,34.52
2002-04-29,38.84
2002-04-30,34.52
2002-05-01,41.54
2002-05-02,41.54
2002-05-03,38.12
2002-05-04,40.64
2002-05-05,38.3
2002-05-06,33.98
2002-05-07,30.38
2002-05-08,34.7
2002-05-09,33.62
2002-05-10,34.52
2002-05-11,40.28
2002-05-12,45.14
2002-05-13,39.74
2002-05-14,40.1
2002-05-15,40.28
2002-05-16,43.88
2002-05-17,45.68
2002-05-18,43.52
2002-05-19,36.86
2002-05-20,34.7
2002-05-21,33.44
2002-05-22,33.62
2002-05-23,41.0
2002-05-24,46.4
2002-05-25,47.66
2002-05-26,47.3
2002-05-27,45.32
2002-05-28,46.76
2002-05-29,51.44
2002-05-30,49.1
2002-05-31,49.46
2002-06-01,44.06
2002-06-02,43.7
2002-06-03,46.76
2002-06-04,49.1
2002-06-05,49.1
2002-06-06,44.6
2002-06-07,39.2
2002-06-08,32.9
2002-06-09,39.2
2002-06-10,46.4
2002-06-11,51.08
2002-06-12,56.84
2002-06-13,57.2
2002-06-14,54.68
2002-06-15,55.76
2002-06-16,50.54
2002-06-17,43.52
2002-06-18,43.52
2002-06-19,46.76
2002-06-20,52.7
2002-06-21,55.58
2002-06-22,55.22
2002-06-23,52.7
2002-06-24,56.12
2002-06-25,61.88
2002-06-26,62.78
2002-06-27,57.38
2002-06-28,53.78
2002-06-29,51.98
2002-06-30,51.8
2002-07-01,54.86
2002-07-02,58.46
2002-07-03,51.44
2002-07-04,49.1
2002-07-05,53.96
2002-07-06,57.38
2002-07-07,55.22
2002-07-08,54.14
2002-07-09,63.68
2002-07-10,68.9
2002-07-11,70.52
2002-07-12,70.7
2002-07-13,66.02
2002-07-14,60.98
2002-07-15,60.8
2002-07-16,60.44
2002-07-17,59.36
2002-07-18,58.82
2002-07-19,57.38
2002-07-20,60.44
2002-07-21,64.04
2002-07-22,61.34
2002-07-23,58.64
2002-07-24,57.2
2002-07-25,57.74
2002-07-26,57.92
2002-07-27,57.02
2002-07-28,60.62
2002-07-29,61.52
2002-07-30,59.18
2002-07-31,57.56
2002-08-01,56.84
2002-08-02,53.06
2002-08-03,51.26
2002-08-04,42.44
2002-08-05,41.0
2002-08-06,43.16
2002-08-07,46.76
2002-08-08,52.52
2002-08-09,57.74
2002-08-10,60.98
2002-08-11,60.8
2002-08-12,63.32
2002-08-13,64.94
2002-08-14,65.48
2002-08-15,63.14
2002-08-16,61.16
2002-08-17,55.94
2002-08-18,54.32
2002-08-19,51.08
2002-08-20,43.34
2002-08-21,46.4
2002-08-22,52.52
2002-08-23,52.88
2002-08-24,52.16
2002-08-25,52.7
2002-08-26,51.08
2002-08-27,56.84
2002-08-28,59.9
2002-08-29,57.2
2002-08-30,53.78
2002-08-31,53.78
2002-09-01,58.1
2002-09-02,59.36
2002-09-03,53.6
2002-09-04,45.86
2002-09-05,42.8
2002-09-06,37.94
2002-09-07,38.66
2002-09-08,42.26
2002-09-09,49.28
2002-09-10,55.22
2002-09-11,58.28
2002-09-12,59.36
2002-09-13,59.0
2002-09-14,54.86
2002-09-15,53.06
2002-09-16,46.76
2002-09-17,44.96
2002-09-18,48.74
2002-09-19,54.14
2002-09-20,52.16
2002-09-21,50.9
2002-09-22,56.12
2002-09-23,56.66
2002-09-24,54.14
2002-09-25,50.36
2002-09-26,50.54
2002-09-27,45.32
2002-09-28,46.94
2002-09-29,37.4
2002-09-30,33.08
2002-10-01,33.08
2002-10-02,38.12
2002-10-03,39.74
2002-10-04,44.96
2002-10-05,47.12
2002-10-06,48.02
2002-10-07,48.56
2002-10-08,46.4
2002-10-09,44.24
2002-10-10,37.04
2002-10-11,34.16
2002-10-12,41.36
2002-10-13,44.42
2002-10-14,45.14
2002-10-15,47.3
2002-10-16,48.2
2002-10-17,49.46
2002-10-18,45.5
2002-10-19,43.52
2002-10-20,40.28
2002-10-21,42.44
2002-10-22,40.1
2002-10-23,37.76
2002-10-24,35.24
2002-10-25,35.96
2002-10-26,33.62
2002-10-27,36.32
2002-10-28,36.68
2002-10-29,31.28
2002-10-30,22.64
2002-10-31,24.98
2002-11-01,27.14
2002-11-02,30.02
2002-11-03,34.7
2002-11-04,35.78
2002-11-05,37.58
2002-11-06,38.66
2002-11-07,36.5
2002-11-08,33.08
2002-11-09,31.1
2002-11-10,31.46
2002-11-11,33.44
2002-11-12,35.42
2002-11-13,33.98
2002-11-14,34.52
2002-11-15,31.64
2002-11-16,34.88
2002-11-17,31.1
2002-11-18,31.82
2002-11-19,39.2
2002-11-20,42.08
2002-11-21,38.84
2002-11-22,38.48
2002-11-23,37.22
2002-11-24,34.34
2002-11-25,34.34
2002-11-26,35.42
2002-11-27,39.56
2002-11-28,38.12
2002-11-29,38.66
2002-11-30,37.4
2002-12-01,34.52
2002-12-02,32.0
2002-12-03,32.9
2002-12-04,35.24
2002-12-05,34.52
2002-12-06,33.8
2002-12-07,32.9
2002-12-08,32.54
2002-12-09,33.98
2002-12-10,31.1
2002-12-11,33.26
2002-12-12,33.98
2002-12-13,33.8
2002-12-14,35.6
2002-12-15,30.74
2002-12-16,29.12
2002-12-17,25.16
2002-12-18,24.98
2002-12-19,24.8
2002-12-20,27.14
2002-12-21,27.68
2002-12-22,26.78
2002-12-23,22.28
2002-12-24,23.9
2002-12-25,24.62
2002-12-26,29.3
2002-12-27,33.8
2002-12-28,31.46
2002-12-29,26.78
2002-12-30,28.76
2002-12-31,28.4
2003-01-01,27.68
2003-01-02,31.64
2003-01-03,34.88
2003-01-04,35.42
2003-01-05,32.18
2003-01-06,34.88
2003-01-07,33.44
2003-01-08,33.8
2003-01-09,31.46
2003-01-10,31.1
2003-01-11,32.72
2003-01-12,33.26
2003-01-13,34.16
2003-01-14,33.98
2003-01-15,31.64
2003-01-16,32.9
2003-01-17,37.94
2003-01-18,37.94
2003-01-19,36.5
2003-01-20,34.16
2003-01-21,33.44
2003-01-22,35.96
2003-01-23,33.98
2003-01-24,33.62
2003-01-25,39.02
2003-01-26,40.28
2003-01-27,32.72
2003-01-28,29.3
2003-01-29,35.06
2003-01-30,42.98
2003-01-31,41.9
2003-02-01,29.48
2003-02-02,27.86
2003-02-03,24.08
2003-02-04,23.0
2003-02-05,24.26
2003-02-06,24.62
2003-02-07,25.52
2003-02-08,25.34
2003-02-09,30.74
2003-02-10,30.56
2003-02-11,30.92
2003-02-12,35.78
2003-02-13,35.24
2003-02-14,33.98
2003-02-15,33.26
2003-02-16,28.76
2003-02-17,29.3
2003-02-18,30.2
2003-02-19,31.46
2003-02-20,30.02
2003-02-21,33.44
2003-02-22,29.3
2003-02-23,28.76
2003-02-24,26.06
2003-02-25,23.18
2003-02-26,22.64
2003-02-27,27.14
2003-02-28,24.62
2003-03-01,29.84
2003-03-02,28.94
2003-03-03,27.86
2003-03-04,26.42
2003-03-05,30.56
2003-03-06,30.38
2003-03-07,31.46
2003-03-08,34.88
2003-03-09,36.32
2003-03-10,38.3
2003-03-11,38.84
2003-03-12,39.02
2003-03-13,39.2
2003-03-14,34.52
2003-03-15,31.82
2003-03-16,30.74
2003-03-17,27.86
2003-03-18,28.94
2003-03-19,32.18
2003-03-20,32.36
2003-03-21,35.42
2003-03-22,33.98
2003-03-23,27.14
2003-03-24,30.74
2003-03-25,35.06
2003-03-26,29.48
2003-03-27,28.58
2003-03-28,32.18
2003-03-29,40.82
2003-03-30,43.7
2003-03-31,39.74
2003-04-01,28.22
2003-04-02,23.0
2003-04-03,25.16
2003-04-04,26.96
2003-04-05,26.06
2003-04-06,28.76
2003-04-07,35.24
2003-04-08,40.1
2003-04-09,39.92
2003-04-10,37.94
2003-04-11,36.86
2003-04-12,33.8
2003-04-13,30.38
2003-04-14,31.64
2003-04-15,31.82
2003-04-16,31.82
2003-04-17,30.74
2003-04-18,29.48
2003-04-19,33.98
2003-04-20,37.94
2003-04-21,35.06
2003-04-22,35.42
2003-04-23,34.88
2003-04-24,27.68
2003-04-25,27.32
2003-04-26,29.3
2003-04-27,32.0
2003-04-28,33.8
2003-04-29,32.9
2003-04-30,34.52
2003-05-01,37.94
2003-05-02,39.74
2003-05-03,34.34
2003-05-04,30.92
2003-05-05,32.54
2003-05-06,35.6
2003-05-07,33.8
2003-05-08,30.56
2003-05-09,32.9
2003-05-10,35.06
2003-05-11,33.62
2003-05-12,39.92
2003-05-13,45.68
2003-05-14,44.96
2003-05-15,36.68
2003-05-16,33.8
2003-05-17,29.66
2003-05-18,32.72
2003-05-19,42.26
2003-05-20,44.24
2003-05-21,48.02
2003-05-22,50.0
2003-05-23,52.16
2003-05-24,48.92
2003-05-25,43.7
2003-05-26,45.86
2003-05-27,50.72
2003-05-28,51.98
2003-05-29,53.42
2003-05-30,46.4
2003-05-31,46.4
2003-06-01,48.38
2003-06-02,50.36
2003-06-03,53.6
2003-06-04,53.78
2003-06-05,55.04
2003-06-06,58.1
2003-06-07,57.38
2003-06-08,54.32
2003-06-09,49.28
2003-06-10,49.46
2003-06-11,48.02
2003-06-12,46.76
2003-06-13,46.4
2003-06-14,47.12
2003-06-15,51.08
2003-06-16,56.66
2003-06-17,59.54
2003-06-18,51.26
2003-06-19,45.5
2003-06-20,42.8
2003-06-21,41.72
2003-06-22,41.18
2003-06-23,39.92
2003-06-24,46.22
2003-06-25,54.86
2003-06-26,60.62
2003-06-27,61.52
2003-06-28,61.16
2003-06-29,59.0
2003-06-30,53.42
2003-07-01,50.18
2003-07-02,51.8
2003-07-03,53.06
2003-07-04,55.76
2003-07-05,56.66
2003-07-06,57.38
2003-07-07,55.04
2003-07-08,52.34
2003-07-09,58.82
2003-07-10,61.16
2003-07-11,60.62
2003-07-12,56.84
2003-07-13,53.42
2003-07-14,57.2
2003-07-15,58.46
2003-07-16,58.28
2003-07-17,62.42
2003-07-18,64.76
2003-07-19,64.94
2003-07-20,64.94
2003-07-21,69.08
2003-07-22,71.06
2003-07-23,69.44
2003-07-24,62.6
2003-07-25,62.24
2003-07-26,61.52
2003-07-27,65.12
2003-07-28,66.2
2003-07-29,68.9
2003-07-30,68.54
2003-07-31,65.48
2003-08-01,61.7
2003-08-02,56.48
2003-08-03,53.78
2003-08-04,56.3
2003-08-05,51.98
2003-08-06,
2003-08-07,49.28
2003-08-08,51.62
2003-08-09,53.24
2003-08-10,53.6
2003-08-11,51.08
2003-08-12,50.9
2003-08-13,54.5
2003-08-14,58.82
2003-08-15,57.74
2003-08-16,55.58
2003-08-17,60.08
2003-08-18,63.86
2003-08-19,61.52
2003-08-20,60.62
2003-08-21,55.76
2003-08-22,52.16
2003-08-23,51.8
2003-08-24,57.2
2003-08-25,60.08
2003-08-26,56.66
2003-08-27,56.12
2003-08-28,56.48
2003-08-29,57.56
2003-08-30,60.98
2003-08-31,61.7
2003-09-01,61.16
2003-09-02,63.5
2003-09-03,62.78
2003-09-04,61.88
2003-09-05,53.6
2003-09-06,54.86
2003-09-07,46.4
2003-09-08,40.64
2003-09-09,41.9
2003-09-10,45.68
2003-09-11,50.72
2003-09-12,50.0
2003-09-13,50.72
2003-09-14,52.34
2003-09-15,50.54
2003-09-16,36.68
2003-09-17,39.02
2003-09-18,45.68
2003-09-19,48.38
2003-09-20,50.9
2003-09-21,53.24
2003-09-22,55.58
2003-09-23,55.94
2003-09-24,57.02
2003-09-25,56.3
2003-09-26,61.16
2003-09-27,60.98
2003-09-28,59.0
2003-09-29,49.64
2003-09-30,47.66
2003-10-01,50.54
2003-10-02,51.62
2003-10-03,51.08
2003-10-04,51.26
2003-10-05,50.36
2003-10-06,51.44
2003-10-07,45.86
2003-10-08,45.14
2003-10-09,35.42
2003-10-10,34.88
2003-10-11,37.4
2003-10-12,34.88
2003-10-13,38.84
2003-10-14,39.56
2003-10-15,38.48
2003-10-16,44.96
2003-10-17,46.94
2003-10-18,47.12
2003-10-19,46.4
2003-10-20,51.08
2003-10-21,50.36
2003-10-22,48.38
2003-10-23,37.22
2003-10-24,41.54
2003-10-25,47.48
2003-10-26,50.72
2003-10-27,51.26
2003-10-28,51.44
2003-10-29,32.0
2003-10-30,26.24
2003-10-31,23.18
2003-11-01,25.52
2003-11-02,27.5
2003-11-03,25.34
2003-11-04,25.16
2003-11-05,29.84
2003-11-06,31.64
2003-11-07,33.62
2003-11-08,34.7
2003-11-09,33.62
2003-11-10,34.16
2003-11-11,34.34
2003-11-12,33.26
2003-11-13,32.54
2003-11-14,33.8
2003-11-15,32.18
2003-11-16,32.72
2003-11-17,32.54
2003-11-18,37.76
2003-11-19,35.78
2003-11-20,23.9
2003-11-21,21.92
2003-11-22,17.06
2003-11-23,25.16
2003-11-24,24.44
2003-11-25,25.34
2003-11-26,26.42
2003-11-27,25.52
2003-11-28,31.64
2003-11-29,34.34
2003-11-30,34.7
2003-12-01,33.98
2003-12-02,34.88
2003-12-03,35.78
2003-12-04,34.34
2003-12-05,36.32
2003-12-06,32.36
2003-12-07,28.04
2003-12-08,27.5
2003-12-09,27.68
2003-12-10,29.48
2003-12-11,30.02
2003-12-12,32.54
2003-12-13,35.06
2003-12-14,24.26
2003-12-15,18.32
2003-12-16,26.06
2003-12-17,32.54
2003-12-18,31.1
2003-12-19,33.8
2003-12-20,32.9
2003-12-21,31.64
2003-12-22,31.1
2003-12-23,32.18
2003-12-24,29.48
2003-12-25,24.08
2003-12-26,19.04
2003-12-27,23.72
2003-12-28,25.88
2003-12-29,26.42
2003-12-30,23.9
2003-12-31,26.6
2004-01-01,24.98
2004-01-02,20.12
2004-01-03,20.66
2004-01-04,22.1
2004-01-05,22.64
2004-01-06,27.14
2004-01-07,30.02
2004-01-08,33.08
2004-01-09,34.52
2004-01-10,32.36
2004-01-11,32.9
2004-01-12,33.62
2004-01-13,35.24
2004-01-14,34.34
2004-01-15,34.34
2004-01-16,29.48
2004-01-17,30.2
2004-01-18,34.52
2004-01-19,32.18
2004-01-20,26.42
2004-01-21,23.9
2004-01-22,28.4
2004-01-23,34.7
2004-01-24,27.68
2004-01-25,23.36
2004-01-26,22.82
2004-01-27,30.38
2004-01-28,33.08
2004-01-29,36.5
2004-01-30,25.52
2004-01-31,23.9
2004-02-01,31.1
2004-02-02,29.12
2004-02-03,29.48
2004-02-04,28.58
2004-02-05,25.16
2004-02-06,27.86
2004-02-07,25.34
2004-02-08,22.82
2004-02-09,24.8
2004-02-10,27.68
2004-02-11,31.82
2004-02-12,30.38
2004-02-13,29.3
2004-02-14,29.66
2004-02-15,30.38
2004-02-16,32.0
2004-02-17,32.36
2004-02-18,31.46
2004-02-19,27.14
2004-02-20,24.8
2004-02-21,29.84
2004-02-22,32.36
2004-02-23,31.1
2004-02-24,30.02
2004-02-25,30.56
2004-02-26,29.66
2004-02-27,28.94
2004-02-28,29.66
2004-02-29,28.4
2004-03-01,31.1
2004-03-02,29.12
2004-03-03,26.24
2004-03-04,29.48
2004-03-05,31.1
2004-03-06,33.62
2004-03-07,36.86
2004-03-08,41.18
2004-03-09,39.2
2004-03-10,38.48
2004-03-11,39.92
2004-03-12,41.18
2004-03-13,39.74
2004-03-14,40.1
2004-03-15,39.92
2004-03-16,41.36
2004-03-17,41.9
2004-03-18,42.62
2004-03-19,35.42
2004-03-20,41.72
2004-03-21,45.32
2004-03-22,44.06
2004-03-23,39.74
2004-03-24,33.62
2004-03-25,30.2
2004-03-26,29.48
2004-03-27,33.44
2004-03-28,36.86
2004-03-29,43.88
2004-03-30,33.26
2004-03-31,26.6
2004-04-01,31.28
2004-04-02,39.02
2004-04-03,42.98
2004-04-04,43.16
2004-04-05,39.92
2004-04-06,39.74
2004-04-07,39.92
2004-04-08,41.54
2004-04-09,42.26
2004-04-10,41.0
2004-04-11,43.34
2004-04-12,43.34
2004-04-13,36.32
2004-04-14,32.36
2004-04-15,30.02
2004-04-16,30.92
2004-04-17,30.56
2004-04-18,31.64
2004-04-19,32.54
2004-04-20,31.82
2004-04-21,30.56
2004-04-22,35.06
2004-04-23,37.4
2004-04-24,40.82
2004-04-25,44.96
2004-04-26,49.1
2004-04-27,48.56
2004-04-28,39.74
2004-04-29,43.16
2004-04-30,45.68
2004-05-01,47.84
2004-05-02,48.74
2004-05-03,47.84
2004-05-04,42.8
2004-05-05,41.0
2004-05-06,42.8
2004-05-07,39.38
2004-05-08,37.4
2004-05-09,37.04
2004-05-10,33.62
2004-05-11,33.44
2004-05-12,38.12
2004-05-13,41.9
2004-05-14,43.52
2004-05-15,40.46
2004-05-16,42.08
2004-05-17,38.12
2004-05-18,36.5
2004-05-19,41.36
2004-05-20,41.72
2004-05-21,44.42
2004-05-22,36.86
2004-05-23,38.66
2004-05-24,43.34
2004-05-25,46.58
2004-05-26,46.94
2004-05-27,41.18
2004-05-28,35.24
2004-05-29,36.68
2004-05-30,43.34
2004-05-31,44.96
2004-06-01,47.3
2004-06-02,50.0
2004-06-03,51.8
2004-06-04,53.24
2004-06-05,44.96
2004-06-06,39.74
2004-06-07,35.78
2004-06-08,36.5
2004-06-09,38.3
2004-06-10,39.92
2004-06-11,42.26
2004-06-12,44.24
2004-06-13,46.94
2004-06-14,48.2
2004-06-15,51.26
2004-06-16,53.96
2004-06-17,55.94
2004-06-18,53.6
2004-06-19,51.62
2004-06-20,52.16
2004-06-21,55.4
2004-06-22,58.46
2004-06-23,58.28
2004-06-24,57.56
2004-06-25,55.22
2004-06-26,51.62
2004-06-27,54.68
2004-06-28,59.36
2004-06-29,53.24
2004-06-30,54.68
2004-07-01,53.06
2004-07-02,54.32
2004-07-03,55.94
2004-07-04,56.12
2004-07-05,58.28
2004-07-06,58.28
2004-07-07,53.42
2004-07-08,52.16
2004-07-09,51.62
2004-07-10,49.64
2004-07-11,53.96
2004-07-12,57.92
2004-07-13,59.36
2004-07-14,59.72
2004-07-15,58.28
2004-07-16,60.26
2004-07-17,62.06
2004-07-18,58.28
2004-07-19,54.86
2004-07-20,56.12
2004-07-21,59.36
2004-07-22,63.14
2004-07-23,65.3
2004-07-24,67.1
2004-07-25,64.4
2004-07-26,61.7
2004-07-27,61.7
2004-07-28,62.24
2004-07-29,59.36
2004-07-30,59.36
2004-07-31,61.16
2004-08-01,61.34
2004-08-02,54.32
2004-08-03,51.62
2004-08-04,53.96
2004-08-05,50.72
2004-08-06,50.18
2004-08-07,53.6
2004-08-08,59.9
2004-08-09,63.32
2004-08-10,63.86
2004-08-11,66.56
2004-08-12,65.84
2004-08-13,65.12